Location: Karcze
(52.0945°N, 22.4786°E)
Time: 02:11:05
(UTC+00:00)

A-11 Canister half - Pass Details

Date: 05 August 2021
Orbit: 1514 x 1685 km, 47.2° (Epoch: 16 September)

Event Time Altitude Azimuth Distance (km) Brightness Sun altitude
Rises 17:24:35 0° 265° (W) 4,821 13.0 6.0°
Reaches altitude 10° 17:27:40 10° 263° (W) 3,857 12.4 5.5°
Maximum altitude 17:37:27 67° 184° (S) 1,775 9.4 4.1°
Drops below altitude 10° 17:47:28 10° 105° (ESE) 3,947 10.5 2.7°
Sets 17:50:40 0° 103° (ESE) 4,939 11.0 2.3°
